Wind_Speed
28 27 27 26 25 25 24 25 25 25 27 28 29 28 27 25 24 23 23 23 23 23 23 22 21 21 20 19 18 17 15 14 13 12 11 10 9 8 8 7 8 9 10 10 9 8 7 7 7 8 8 9 10 12 14 14 14 13 12 11 10 9 8 7 5 3 2 1 4 6 7 9 12 14 16 17 19 19 20 21 21 20 19 19 18
29 28 28 27 26 26 25 24 25 25 26 27 28 28 28 27 25 25 24 23 23 23 22 22 22 22 21 20 19 18 18 16 14 13 12 11 10 10 9 9 9 9 10 11 11 11 10 9 9 9 10 10 11 13 15 14 14 13 12 11 9 8 7 5 3 1 1 3 4 6 8 11 12 15 17 18 19 19 20 19 18 17 17 16 15
30 29 28 28 27 26 26 25 25 26 26 27 27 27 28 27 26 26 26 24 24 24 23 21 21 22 23 22 20 19 19 17 16 14 12 11 11 11 11 10 10 10 10 11 12 13 12 11 11 12 12 12 13 15 16 15 14 13 12 11 10 8 7 5 4 3 3 4 6 7 9 12 13 15 18 19 19 19 18 16 14 14 14 14 14
30 29 28 28 28 28 28 27 27 27 27 27 27 27 27 27 27 27 26 26 24 23 23 21 20 21 23 24 22 20 19 18 17 15 13 12 12 12 12 11 11 11 11 11 11 13 14 14 14 14 14 15 15 16 17 16 15 14 14 13 11 10 9 8 7 7 6 6 8 9 11 12 14 16 19 19 17 16 14 11 10 11 12 12 14
29 29 27 27 29 29 29 29 28 28 27 27 27 26 27 27 27 27 26 26 25 23 23 22 21 20 21 23 23 22 20 18 17 16 14 13 12 13 13 12 11 12 11 11 11 12 13 15 16 16 16 16 17 18 18 17 17 16 15 14 13 12 12 10 10 10 9 8 9 10 12 13 14 16 19 18 15 11 9 8 9 10 11 11 14
28 28 27 27 28 29 30 30 30 29 28 27 27 26 27 27 27 27 26 26 26 25 23 23 22 21 20 20 22 22 21 19 17 16 16 15 14 14 14 14 13 12 12 11 11 11 12 13 16 18 18 17 18 19 20 19 19 18 17 16 16 15 14 13 12 12 11 11 12 12 14 15 15 15 17 17 13 9 7 7 8 10 11 12 14
26 26 26 26 27 28 29 29 29 29 28 27 27 26 27 27 26 26 26 26 27 26 25 24 23 22 21 21 21 21 22 22 20 19 17 17 16 15 15 15 14 13 12 11 12 12 11 12 14 16 18 19 19 20 20 21 20 20 19 19 18 17 16 15 14 13 13 13 14 15 16 16 16 15 14 13 10 8 8 7 8 10 12 14 16
26 25 25 25 25 24 26 27 28 28 28 27 27 27 27 27 26 26 26 26 27 26 25 24 23 23 23 22 22 21 22 23 22 21 19 18 17 17 16 16 15 15 14 13 12 12 12 11 12 14 16 19 21 21 21 21 21 21 21 20 20 19 18 18 16 15 15 15 15 16 16 15 16 15 12 10 8 7 9 9 9 12 15 17 19
27 25 24 24 23 22 22 25 26 27 28 28 28 28 28 27 27 26 26 27 26 26 25 25 24 24 23 24 24 24 24 23 23 21 20 19 18 18 17 16 16 16 15 14 14 13 13 12 11 12 14 17 20 22 22 22 22 22 22 21 21 20 20 19 19 18 18 17 16 17 17 15 15 13 10 8 8 8 9 10 11 14 16 18 19
28 26 23 21 21 21 21 23 24 26 27 28 28 28 28 27 27 27 27 26 26 26 26 25 24 24 24 24 25 26 26 25 23 22 20 20 19 19 18 18 17 17 17 16 16 15 14 13 12 12 12 14 17 20 22 23 23 22 22 22 22 21 21 20 20 20 19 18 18 18 17 15 13 13 9 6 7 9 10 10 12 14 16 17 19
29 26 23 22 22 22 22 22 23 24 25 26 28 28 28 28 28 28 27 27 27 27 27 27 25 23 23 24 25 26 26 25 23 22 21 21 20 20 20 19 19 19 18 18 17 16 15 14 13 13 12 13 14 17 19 21 22 23 23 23 23 22 22 21 20 20 20 20 19 18 17 15 12 11 9 6 6 8 10 12 13 14 17 18 20
28 27 25 24 24 23 22 22 22 23 23 24 26 28 28 28 28 29 28 28 28 28 28 27 26 24 23 23 25 26 25 24 23 22 21 21 21 21 21 21 20 20 20 19 18 17 16 15 14 14 13 13 14 15 16 18 20 21 22 23 24 23 22 21 21 21 21 20 19 17 15 15 12 9 8 7 6 7 10 13 14 16 17 18 20
30 30 29 29 27 25 23 23 22 22 22 23 25 27 29 29 29 29 29 27 27 28 28 28 27 25 23 22 23 24 25 24 23 22 22 22 22 22 22 22 22 21 20 20 19 18 17 15 14 13 13 13 14 14 14 15 16 19 20 22 23 23 22 21 21 21 20 20 18 14 13 14 11 7 8 9 7 8 10 12 14 16 17 19 22
35 35 35 35 32 28 26 24 23 22 22 23 24 26 28 28 28 28 28 27 27 28 28 28 27 26 24 22 21 22 24 24 24 23 22 22 23 23 23 23 22 22 21 20 19 18 17 15 14 13 13 14 14 13 13 13 15 17 18 20 21 21 21 20 19 19 19 18 16 13 12 14 12 9 10 10 9 9 10 11 14 15 16 19 23
35 34 34 34 33 31 29 27 25 23 23 23 25 26 27 27 27 27 27 27 27 26 26 27 28 27 26 23 21 21 22 23 23 23 22 21 22 23 23 23 23 23 21 20 19 18 16 15 13 13 13 14 14 14 13 13 15 16 17 18 19 19 19 18 17 17 17 16 15 14 14 16 15 12 12 12 11 11 11 12 14 15 17 21 24
35 33 30 28 28 30 30 29 28 26 24 24 25 26 26 26 26 26 26 27 27 26 26 27 27 28 27 25 23 22 22 23 23 23 22 20 20 21 22 23 24 23 21 20 19 18 16 15 13 13 14 14 15 15 14 14 15 16 17 17 17 18 17 15 15 16 16 15 16 16 17 18 17 15 14 14 14 14 13 14 15 17 20 23 26
31 30 29 27 26 27 28 30 29 28 27 26 25 25 25 26 26 26 25 26 26 26 26 26 26 27 27 27 26 24 23 23 23 23 22 22 21 21 21 21 22 21 20 19 19 18 17 16 14 14 14 14 15 16 16 16 16 16 17 17 18 18 17 15 15 16 16 16 16 17 17 18 18 16 15 16 17 17 16 17 18 20 22 25 27
27 24 26 30 29 27 27 28 30 30 30 28 27 26 25 26 26 26 26 25 24 24 24 24 25 26 27 28 27 25 24 23 22 22 22 22 22 22 21 21 20 20 19 19 20 19 18 17 16 15 14 14 15 16 18 18 18 17 18 19 20 20 18 17 17 18 17 17 17 16 16 17 17 17 17 18 19 19 19 19 20 22 24 27 29
28 24 25 30 33 31 28 28 29 30 31 30 29 28 27 27 27 27 27 26 25 24 24 24 24 25 26 27 27 27 26 24 23 22 22 23 23 23 23 23 22 21 20 20 20 20 20 18 17 16 15 15 16 17 18 19 20 19 19 21 22 21 19 19 20 20 19 18 16 15 16 16 17 18 19 20 20 21 21 21 22 24 26 28 30
30 28 28 32 35 35 32 31 30 30 31 31 31 31 30 29 28 28 28 28 27 27 25 24 24 24 25 26 27 28 27 26 25 24 23 23 24 24 25 25 24 23 22 22 22 22 22 20 19 17 16 16 17 17 18 20 20 21 22 24 23 21 20 22 22 21 19 17 15 15 16 16 17 19 20 21 23 23 24 25 25 27 28 29 30
32 31 30 32 35 35 34 33 32 30 31 32 34 34 33 32 31 30 29 29 29 29 28 26 24 24 25 26 27 28 28 27 26 25 25 25 25 26 27 26 24 23 23 24 25 25 24 22 20 19 18 18 18 19 20 20 21 22 24 25 24 23 23 24 23 21 19 17 16 17 17 17 18 20 21 22 24 26 27 27 28 28 30 30 31
34 33 32 33 34 34 33 33 33 33 33 34 36 36 36 35 33 32 31 30 30 31 30 28 26 25 24 26 27 28 27 27 27 26 26 26 26 27 27 26 24 24 24 25 26 27 26 24 22 21 21 21 21 22 22 22 23 23 23 24 25 26 26 26 25 23 21 18 18 18 19 19 20 21 22 23 25 27 28 28 28 29 30 30 31
34 32 33 35 35 34 32 32 33 34 35 36 37 38 38 38 36 34 33 32 32 32 32 31 29 27 26 26 27 27 27 28 27 27 26 26 27 28 28 26 25 25 26 27 27 27 26 25 24 24 24 24 24 25 25 25 26 25 24 24 27 28 28 27 26 24 23 22 21 20 20 22 23 23 23 23 25 27 28 28 27 27 28 29 30
35 34 34 36 36 36 34 33 33 34 35 37 39 39 40 39 39 37 35 34 34 34 33 32 32 30 29 27 27 27 27 27 27 27 27 27 27 28 28 26 26 27 28 28 27 27 27 27 26 25 25 25 25 26 27 27 27 27 26 27 28 28 28 27 26 26 26 25 24 23 24 26 26 25 25 26 27 28 28 28 27 27 27 29 30
37 36 35 37 38 38 37 35 34 34 35 38 40 41 40 40 40 39 38 37 36 35 34 34 33 32 31 29 28 26 26 26 26 25 26 26 26 27 27 27 27 27 27 26 27 27 27 27 26 25 25 25 25 25 26 26 26 26 27 29 30 29 28 28 28 29 29 28 28 28 28 29 29 28 27 29 29 29 30 29 28 29 29 29 29
38 38 37 36 37 37 36 35 34 34 36 38 40 40 40 40 40 41 41 40 38 36 35 34 34 33 32 31 29 28 26 25 25 24 24 24 25 25 25 25 25 25 26 26 26 26 26 25 25 25 25 24 24 23 23 23 23 24 25 27 29 29 29 29 30 31 31 31 31 30 30 30 30 30 30 31 31 30 30 29 30 32 32 30 27
37 37 37 37 37 36 35 34 34 34 35 38 39 40 40 41 41 43 42 41 39 37 36 35 34 34 33 32 31 29 27 26 25 24 23 23 23 23 22 22 23 24 24 23 23 23 24 25 25 24 23 22 22 22 21 21 21 21 22 24 26 27 28 29 30 31 31 31 31 31 31 31 31 31 31 29 27 26 26 26 28 32 32 31 29
36 37 38 38 39 39 37 35 35 36 37 38 39 39 41 41 42 42 42 40 38 36 35 34 34 33 33 32 31 30 29 29 26 23 22 21 21 20 20 19 19 20 20 19 20 22 24 25 25 24 23 21 21 20 20 19 19 19 20 21 23 25 26 28 29 30 30 30 31 31 31 30 30 29 28 26 24 25 25 25 26 29 31 32 31
37 38 40 41 42 42 40 39 38 38 39 39 40 41 41 42 42 42 42 40 37 35 34 33 32 31 31 31 30 31 31 29 24 20 18 18 18 18 18 17 17 18 19 21 23 25 25 25 24 23 22 20 20 19 19 19 19 20 20 21 22 23 25 27 27 27 28 30 31 32 31 29 29 28 26 26 27 28 26 25 25 28 31 32 31
39 41 43 45 46 45 44 43 43 42 41 42 42 42 42 41 41 42 41 39 36 33 33 32 30 29 30 30 30 31 30 27 22 19 18 18 18 19 18 18 19 21 23 25 27 27 26 25 24 23 21 20 20 20 19 19 20 21 21 22 22 23 24 25 26 27 29 31 31 31 30 29 29 28 25 25 26 26 25 26 27 29 30 30 29
42 44 46 47 48 47 47 47 46 45 45 44 43 43 43 42 41 41 39 36 33 32 32 32 31 31 30 30 30 30 29 26 23 21 20 19 19 20 20 21 23 25 26 28 28 28 27 26 25 23 22 22 22 21 21 22 22 22 23 23 23 23 23 23 24 25 27 28 27 26 27 30 31 29 27 26 26 24 24 27 29 29 30 29 28
45 46 47 48 48 49 50 50 50 49 48 46 44 43 43 41 40 40 37 33 32 32 32 31 31 31 30 30 29 27 25 24 22 22 21 21 21 22 23 24 26 27 28 29 29 29 29 27 25 23 22 23 23 23 24 25 25 26 26 25 25 25 23 20 21 23 25 26 25 24 27 31 32 30 28 27 27 26 26 28 29 29 28 28 29
46 47 48 49 50 50 51 52 52 52 50 47 45 44 43 42 40 38 34 31 31 31 30 29 28 28 27 26 25 23 23 23 23 24 24 24 24 24 24 26 27 28 29 29 29 28 27 26 24 23 23 23 24 25 26 27 27 29 29 28 27 27 23 18 19 21 23 24 25 26 27 28 29 28 27 27 26 26 27 28 29 28 28 28 29
45 47 48 49 50 51 52 53 53 51 49 47 44 43 44 44 42 36 33 32 31 29 28 27 26 25 25 24 23 24 24 25 26 26 27 27 27 26 26 26 27 28 28 27 27 25 24 23 23 24 25 26 26 27 28 28 29 30 30 28 27 26 21 16 16 19 20 22 25 27 26 25 24 25 26 27 27 27 27 28 29 28 28 28 28
45 47 48 49 49 50 51 51 49 48 49 47 44 42 44 45 42 36 32 32 30 28 28 28 26 25 25 26 26 27 28 27 27 27 27 28 28 28 28 27 27 28 27 26 24 23 22 23 24 26 27 28 28 28 28 28 29 30 30 28 25 24 22 18 16 18 20 22 25 27 26 25 25 26 26 27 28 28 28 29 29 28 27 27 27
47 49 50 50 50 50 50 49 47 46 48 47 46 45 46 45 42 38 35 34 32 31 31 31 28 28 28 29 29 30 29 28 27 26 26 27 28 29 29 28 28 28 25 22 20 20 22 24 25 27 29 30 29 29 29 28 29 31 30 26 23 23 23 22 20 20 21 24 27 29 28 28 28 29 29 29 30 30 28 28 29 28 27 27 27
49 50 49 49 49 50 50 50 49 48 46 46 47 48 49 47 44 41 39 37 36 35 35 34 32 31 31 31 31 31 30 29 28 27 26 27 28 28 28 28 28 26 23 20 20 22 25 27 27 28 28 29 29 29 29 29 30 31 29 23 20 21 23 24 24 24 24 26 29 31 30 31 32 33 33 32 31 29 28 28 28 27 26 26 26
49 50 49 47 47 49 50 49 48 47 45 44 44 47 49 48 46 43 41 39 38 37 36 34 33 32 33 33 33 31 30 29 29 29 29 29 29 29 28 27 27 26 24 24 24 25 27 28 28 27 27 27 28 28 28 28 28 28 24 20 19 22 24 25 26 26 26 28 30 32 32 33 34 34 33 31 30 29 29 29 29 27 26 25 26
49 49 48 46 44 46 48 47 45 44 45 45 45 45 46 47 47 44 41 40 39 38 36 36 35 35 35 35 33 32 31 30 30 30 30 30 30 29 27 27 27 27 27 27 27 26 26 26 25 24 25 25 26 27 27 27 27 26 24 22 22 24 27 28 28 28 28 29 31 33 33 34 34 33 32 32 31 30 31 30 29 28 27 26 26
49 47 45 45 45 45 45 45 44 43 43 44 45 45 45 45 47 46 43 40 40 40 39 38 38 37 35 34 32 32 32 31 31 31 30 30 29 28 27 27 27 27 27 27 26 26 26 25 25 25 25 26 27 28 28 28 27 26 27 27 26 26 29 31 31 31 31 30 31 33 34 34 34 34 33 33 33 32 31 30 28 27 27 26 26
48 46 43 45 48 48 47 46 45 43 42 43 45 46 45 46 47 48 45 43 42 41 39 38 37 36 34 33 33 33 33 33 32 31 30 29 28 27 27 27 27 27 27 26 26 27 27 27 27 27 27 27 28 29 29 29 28 27 29 31 30 30 31 32 31 31 30 29 29 31 33 33 33 33 33 33 31 30 29 28 27 26 27 26 25
43 45 45 45 47 48 47 45 43 42 42 44 45 45 45 46 47 48 48 46 42 40 38 37 36 34 33 32 33 33 33 33 32 31 30 29 28 27 27 27 27 27 27 27 27 27 27 27 28 28 28 28 28 29 29 29 29 28 29 31 31 32 32 31 30 31 31 29 29 30 31 31 30 30 29 29 27 26 26 26 26 26 26 26 26
36 38 39 40 42 45 45 42 40 42 43 44 45 44 43 43 46 48 48 45 40 38 37 36 35 34 33 33 33 32 32 31 31 30 29 28 28 28 28 28 28 28 27 28 28 29 29 29 29 28 28 28 28 29 29 29 30 31 30 30 31 33 34 33 33 33 32 31 30 31 32 31 29 28 27 26 25 25 26 26 26 26 26 26 27
24 25 25 26 32 41 44 42 42 45 46 44 43 42 41 44 48 49 46 41 38 36 36 36 36 35 34 33 33 32 30 30 30 29 29 28 28 28 28 28 28 28 28 29 29 29 29 29 29 28 28 29 29 29 29 30 31 31 30 29 30 32 33 33 33 33 32 31 30 30 30 29 27 27 27 26 26 26 26 26 25 25 26 26 27
8 9 10 11 16 27 36 40 43 46 47 46 45 44 44 47 49 49 45 40 38 37 38 38 38 38 36 35 34 32 31 30 30 29 29 29 29 29 29 29 29 30 29 29 29 28 28 28 27 27 27 28 28 29 30 31 33 32 31 31 31 33 33 34 34 33 31 29 28 26 25 24 24 25 25 26 26 26 26 26 25 25 26 27 28
12 12 12 11 10 14 22 29 33 35 37 39 41 43 45 45 45 45 44 42 40 39 40 40 39 37 36 35 33 32 32 32 31 31 31 31 30 30 30 31 30 29 27 26 26 26 26 26 27 27 29 31 32 32 32 32 32 32 32 33 33 33 33 33 32 30 29 27 26 24 23 23 24 24 25 25 25 25 25 26 26 26 27 28 29
11 14 16 17 16 16 18 22 24 24 25 26 28 32 36 38 37 37 38 38 36 35 35 35 34 33 33 33 32 31 30 30 30 31 31 30 29 29 29 28 27 25 24 24 24 25 26 28 28 29 30 31 31 30 30 30 31 33 34 34 33 32 31 30 28 27 25 25 25 24 24 24 24 24 25 25 25 25 26 27 27 28 29 30 31
6 9 12 15 17 18 19 20 21 22 23 23 23 24 26 28 27 24 24 25 27 27 28 28 28 28 28 27 26 25 25 26 27 27 27 26 25 25 25 24 23 23 23 25 27 28 29 29 29 29 29 29 29 30 31 32 33 33 32 32 30 29 28 27 25 24 24 25 26 26 26 26 25 25 26 26 26 26 27 28 29 29 30 31 32
5 7 9 11 12 14 16 16 17 19 21 21 20 21 22 22 20 18 18 19 20 19 19 19 20 20 20 19 18 18 20 21 22 21 21 21 21 22 22 22 23 25 26 28 29 29 28 28 28 30 31 32 32 31 30 30 30 30 29 28 28 27 26 25 25 26 26 27 27 27 27 27 27 26 25 25 26 27 28 29 30 31 32 32 34
5 6 9 11 12 12 12 12 14 17 19 18 18 19 19 19 19 18 19 20 21 19 17 16 15 15 15 16 17 18 20 21 22 22 22 22 23 24 25 25 25 27 28 29 28 27 27 27 28 30 30 29 27 26 25 26 26 26 26 26 25 26 26 27 28 28 28 28 27 27 28 29 28 27 25 25 26 28 29 30 31 33 34 35 36
5 6 7 9 11 12 13 12 11 12 15 17 19 21 21 19 18 17 16 17 18 19 18 18 18 16 14 14 16 17 18 19 19 20 21 22 24 25 25 26 28 30 30 29 27 27 27 27 28 27 27 26 25 24 24 24 24 24 24 25 26 27 28 29 29 28 28 28 28 28 29 29 28 27 26 26 28 29 30 32 33 35 36 37 38
Wind_Direction
215 216 215 215 216 217 217 219 220 222 225 226 228 229 228 226 225 225 225 222 221 222 220 217 220 223 219 214 212 213 213 210 209 210 212 216 222 228 228 224 214 205 202 203 202 198 197 195 193 193 195 193 184 176 172 168 166 168 171 175 176 175 173 168 160 152 144 41 17 4 351 350 349 340 336 336 336 335 337 337 336 334 329 328 332
213 215 215 214 215 217 218 219 219 220 223 225 226 226 227 226 224 224 225 224 223 225 223 217 215 220 224 222 216 214 215 216 216 216 216 219 226 233 236 235 228 216 206 204 204 203 203 201 200 199 199 197 191 184 181 180 180 182 183 185 188 190 189 184 176 177 283 327 341 342 336 336 336 330 326 327 328 330 334 336 334 330 326 327 332
212 214 215 214 213 215 217 219 221 221 222 223 224 225 225 225 224 223 225 225 224 225 226 223 216 215 220 225 223 219 216 216 219 221 221 224 230 236 238 236 234 230 220 211 208 206 207 207 205 205 203 202 199 195 193 193 194 196 196 196 199 204 213 219 221 232 261 294 309 316 319 321 322 322 321 322 325 329 333 334 330 323 321 322 326
211 214 216 215 213 214 216 218 221 222 222 222 222 223 223 224 224 223 224 225 224 224 226 228 223 217 217 221 225 225 222 217 217 221 224 226 232 239 241 238 234 235 234 227 219 214 212 211 210 209 207 206 206 206 206 206 207 209 210 210 211 215 224 235 247 257 258 268 288 298 303 308 313 317 316 316 322 327 328 326 317 308 309 315 321
212 214 216 216 214 214 215 217 220 222 224 223 223 222 222 223 224 224 224 224 225 223 223 226 227 224 220 219 223 227 228 225 219 218 222 226 233 241 245 243 237 235 237 238 236 229 222 218 216 215 212 210 211 213 214 217 219 221 223 222 222 224 229 237 249 259 264 270 278 286 294 300 306 312 311 310 316 322 318 315 308 300 307 320 326
210 214 215 215 215 215 215 216 219 221 223 225 224 224 223 223 223 224 224 224 224 223 221 221 223 225 225 223 222 224 229 231 227 222 222 225 232 238 244 247 245 241 240 242 244 241 234 227 223 223 221 217 215 217 220 224 228 230 232 234 236 236 237 241 248 259 273 283 287 290 295 299 302 305 307 308 315 318 306 307 308 303 313 329 334
208 212 214 213 214 216 216 217 219 220 223 225 225 225 225 225 223 223 224 224 224 224 223 220 219 220 223 224 224 223 226 230 232 229 227 226 230 235 239 244 247 247 246 246 248 248 244 237 231 229 228 226 223 222 223 226 231 235 238 242 245 248 250 252 256 263 273 281 287 290 291 295 299 300 301 306 317 319 303 303 308 310 324 341 348
209 211 213 212 212 214 217 217 219 221 222 224 225 227 227 227 225 223 224 225 225 225 224 223 221 219 219 221 224 224 224 227 230 231 230 229 230 233 234 238 243 247 249 250 250 251 250 246 241 235 232 230 229 228 228 228 231 234 239 243 248 253 257 262 265 268 272 276 281 284 285 290 296 298 301 309 315 311 301 303 317 327 340 353 356
212 213 213 211 210 212 215 217 218 220 222 223 224 227 229 229 228 225 224 225 227 228 227 226 224 222 219 219 220 224 225 225 226 227 229 231 232 234 234 234 237 242 247 250 252 253 252 249 245 241 237 234 231 230 231 232 233 234 238 243 248 253 257 263 268 273 277 279 281 283 284 291 296 296 301 310 305 297 295 307 332 342 346 355 359
214 214 213 210 208 209 212 216 217 218 222 223 224 226 228 230 230 227 224 224 226 229 230 230 227 223 222 221 221 223 225 225 224 224 225 228 230 232 232 231 233 236 241 246 250 253 255 253 250 245 241 238 236 234 233 234 236 237 238 242 246 252 257 261 267 273 278 281 283 284 286 291 295 294 295 298 295 293 299 319 343 347 342 348 356
215 214 213 210 209 210 210 213 216 217 220 223 225 227 228 229 230 229 226 224 224 227 230 232 231 226 224 224 224 225 225 226 226 224 224 225 226 228 229 228 228 231 236 241 245 250 254 254 254 251 247 240 236 237 238 238 239 239 240 242 245 249 254 259 265 271 275 279 281 283 285 287 289 292 293 290 291 301 315 329 340 343 339 340 346
220 219 219 218 215 211 211 212 214 216 218 222 225 227 229 230 229 229 228 225 223 226 229 233 234 231 226 223 224 226 227 227 227 227 226 224 225 227 228 227 226 228 232 237 241 246 250 251 250 251 253 248 237 233 236 239 242 243 243 244 245 247 251 256 261 267 271 274 275 277 280 281 283 294 299 292 297 316 326 330 333 334 336 336 337
224 225 226 226 220 214 212 214 214 215 217 220 223 227 230 232 231 230 230 227 225 226 228 232 235 234 227 222 222 225 227 228 228 228 228 226 226 227 229 230 229 228 231 235 239 243 247 249 248 244 248 253 250 245 240 238 240 243 244 246 247 248 250 253 256 262 267 271 271 271 276 280 285 302 306 298 308 325 327 326 326 326 330 331 332
224 226 227 227 224 218 215 214 214 216 216 218 222 225 229 233 233 233 232 230 227 225 226 228 232 235 232 225 220 220 223 226 228 228 227 227 227 228 231 233 233 232 233 235 239 243 247 251 252 246 242 244 248 251 250 247 243 242 244 246 248 249 250 251 254 258 263 268 272 275 283 288 295 308 307 301 306 315 317 318 317 319 322 324 326
225 227 229 230 226 219 215 213 213 215 216 218 222 225 228 232 234 234 233 232 230 227 226 226 228 233 236 232 225 219 217 221 226 228 227 226 227 230 232 234 236 236 236 237 240 243 246 250 253 252 249 247 247 248 247 247 247 245 244 245 245 247 248 248 250 253 258 268 279 286 293 299 304 308 304 298 297 300 305 308 309 311 315 317 321
227 227 230 229 220 212 210 209 210 213 215 218 221 223 226 230 232 234 234 233 232 229 227 226 225 229 234 236 233 225 219 218 222 226 228 228 229 231 233 235 237 239 240 242 244 244 246 248 250 250 250 250 251 252 248 245 243 243 244 244 243 242 242 242 246 250 255 268 281 288 295 299 301 299 295 291 290 292 294 298 302 307 311 315 318
226 227 230 228 219 213 211 208 208 211 214 218 221 223 226 228 230 233 234 234 234 233 230 228 226 225 229 235 236 232 226 221 220 222 225 227 230 231 233 236 239 240 241 243 245 246 245 245 246 245 246 247 249 253 253 250 245 241 240 241 240 240 239 240 245 250 255 266 276 284 288 290 290 288 284 283 286 290 292 296 302 306 310 313 316
220 219 226 229 224 220 216 211 209 211 214 218 222 223 226 228 228 231 234 235 237 236 235 233 230 227 227 231 236 237 234 228 223 218 217 220 225 229 233 237 239 240 242 244 246 247 245 243 242 241 241 243 245 249 253 254 251 246 241 239 239 240 238 239 245 249 252 258 266 273 275 277 280 280 278 280 285 289 292 296 300 303 307 310 313
216 205 212 223 222 219 219 217 215 213 215 219 222 224 226 228 228 231 234 236 237 237 237 236 234 232 229 229 233 237 238 236 229 222 217 217 220 224 229 232 235 237 242 247 250 250 248 246 244 242 240 240 243 247 251 254 255 253 249 245 242 239 238 240 244 245 245 248 254 264 269 272 276 276 276 281 286 288 290 292 295 300 304 308 311
224 213 211 215 217 217 218 220 220 218 219 221 224 226 227 228 228 229 232 235 236 237 237 236 235 234 232 230 231 233 237 238 236 232 228 225 224 226 228 231 233 235 240 245 250 252 251 250 248 246 244 243 245 248 250 253 255 254 254 253 249 246 244 246 247 247 245 245 253 265 270 271 275 277 279 282 286 288 289 292 297 302 305 307 311
228 224 221 218 217 218 218 220 222 223 224 226 227 228 229 229 229 229 230 233 236 237 238 237 235 235 233 232 232 232 234 237 238 237 236 234 233 233 233 234 235 235 237 241 246 249 250 251 251 250 249 249 250 251 252 254 255 253 253 255 255 253 251 251 252 253 252 251 257 267 271 271 274 280 284 287 290 291 292 296 301 304 305 307 311
226 223 224 224 225 225 223 223 224 225 227 229 230 230 231 231 230 229 229 231 234 237 240 239 236 236 235 234 234 233 233 234 235 236 237 237 238 238 239 238 237 237 238 239 243 246 248 250 251 250 251 253 253 253 253 254 255 256 255 256 256 255 253 254 255 257 258 260 262 267 272 274 277 284 291 295 295 293 293 296 300 302 303 306 308
229 224 223 226 228 229 229 228 228 227 229 230 231 231 232 232 232 231 229 229 231 235 239 241 239 236 234 235 236 236 235 234 234 234 235 236 238 240 242 242 240 240 240 240 243 245 247 249 250 249 250 252 253 255 255 255 255 257 258 258 257 256 256 256 258 261 264 267 266 267 274 280 285 290 294 294 291 288 289 293 296 299 301 302 303
231 228 226 227 229 231 233 233 232 231 229 229 230 232 233 232 233 233 231 229 230 233 237 240 241 239 236 235 236 236 236 236 236 235 235 237 239 242 245 245 244 243 244 244 246 247 249 250 251 252 252 252 253 255 256 256 256 257 259 260 260 260 260 260 262 266 268 270 271 272 277 283 287 290 290 287 285 284 286 289 293 296 298 299 301
229 227 226 228 230 232 233 235 234 232 230 229 229 231 233 233 233 234 234 232 231 232 235 238 241 242 239 238 237 237 238 238 237 237 236 238 240 242 245 247 247 248 249 249 250 251 252 254 256 257 258 258 258 258 258 258 258 257 257 258 260 261 262 263 266 268 270 272 274 275 278 282 284 285 285 284 284 285 287 290 294 297 297 298 299
226 227 226 227 229 231 232 232 232 232 231 230 230 231 234 234 234 235 236 234 233 232 234 237 240 243 242 241 239 238 238 238 238 236 236 238 239 240 242 245 248 250 251 252 254 256 258 259 260 261 262 262 262 263 263 262 260 257 255 255 257 259 261 263 265 267 269 271 273 276 279 280 280 281 284 287 289 292 293 296 299 297 293 293 293
228 229 228 229 231 233 232 231 232 232 231 230 230 231 233 234 235 236 237 237 236 234 233 235 239 242 243 243 241 239 239 241 240 237 236 237 237 237 239 241 245 248 250 252 255 258 260 261 262 262 263 264 265 266 267 266 264 261 258 255 255 256 258 260 262 265 267 271 275 278 279 280 281 284 287 290 293 294 295 301 301 293 287 288 289
234 235 234 233 233 234 234 233 232 233 232 230 229 231 232 234 236 238 240 239 238 236 235 237 240 243 244 244 242 240 241 243 242 238 235 236 236 235 234 234 238 244 248 251 253 254 256 258 260 262 265 268 268 269 268 268 268 265 262 259 257 257 259 260 263 266 271 275 277 278 280 282 285 287 290 293 296 294 293 295 294 288 285 287 286
238 239 239 237 236 235 234 235 235 235 234 232 230 230 232 235 236 239 241 241 239 237 237 239 243 245 246 245 244 241 241 244 245 242 237 233 229 224 223 226 234 242 248 251 252 252 254 257 260 263 267 270 271 270 269 268 266 264 263 262 261 261 262 263 266 270 272 273 274 276 280 284 286 288 291 296 297 295 292 289 285 282 283 284 285
242 242 241 240 239 236 235 236 238 238 237 235 232 230 232 235 237 239 241 241 238 236 235 237 240 242 244 245 244 242 242 245 247 242 231 220 216 216 220 228 237 242 246 248 251 253 255 257 259 261 264 266 268 268 267 265 264 263 262 262 262 262 263 264 266 267 269 271 274 279 283 286 287 288 289 289 289 288 286 285 284 283 281 282 285
244 243 242 242 241 240 239 239 240 240 239 238 235 232 232 234 237 239 240 239 236 232 232 233 235 237 239 240 240 239 239 238 236 230 222 218 220 226 231 235 239 241 243 246 250 253 254 255 256 258 259 261 262 263 263 262 261 261 260 260 260 259 260 263 267 270 274 277 282 285 286 286 286 286 285 283 281 280 279 280 283 282 281 282 287
240 239 239 240 240 240 241 243 243 244 243 242 238 234 232 233 236 237 238 235 230 228 230 233 235 236 237 235 232 230 228 225 224 225 228 232 235 237 238 239 239 240 242 244 247 250 251 253 254 255 256 257 259 259 260 260 260 259 258 258 258 259 259 261 267 273 277 279 281 282 281 281 282 282 281 279 279 279 278 278 279 279 280 284 289
236 234 233 234 236 238 239 242 244 245 244 243 239 235 232 232 234 236 234 229 225 225 228 230 230 229 227 225 223 221 220 221 226 230 235 238 240 240 239 238 237 239 240 242 245 248 250 253 254 254 254 255 256 257 258 259 259 259 259 258 260 263 264 263 264 269 274 276 277 277 275 275 277 279 279 280 281 280 278 277 278 280 284 287 290
235 235 235 235 237 239 240 242 244 246 246 245 243 239 236 234 233 232 227 223 223 224 222 219 217 217 218 219 221 223 226 230 233 235 237 238 239 238 237 236 236 239 241 242 243 245 248 252 255 256 255 254 254 255 257 258 259 260 260 260 261 268 275 272 263 264 270 273 275 278 279 280 282 283 283 283 282 279 277 278 279 282 285 287 287
232 235 236 236 237 240 242 245 247 247 248 248 245 241 239 237 233 226 220 219 220 219 215 213 215 219 223 226 229 232 234 235 236 236 237 237 236 236 236 236 237 238 239 239 240 244 247 250 253 256 257 257 257 257 259 261 262 262 261 258 262 275 288 290 278 272 275 277 279 283 286 288 287 285 284 283 282 280 279 279 280 283 286 287 285
231 232 233 233 235 237 239 243 246 247 248 248 243 237 236 236 231 221 215 215 215 214 215 220 226 230 231 233 233 234 234 235 236 236 235 234 234 235 236 237 238 239 240 240 241 245 249 250 251 255 259 261 263 264 265 265 266 266 265 266 271 281 288 290 288 286 286 285 285 286 288 289 287 286 286 284 283 282 282 282 283 285 286 284 283
233 234 233 233 234 236 238 240 243 244 245 246 243 236 234 235 232 222 215 212 213 214 218 224 229 231 232 232 232 232 232 232 232 233 232 232 234 235 237 239 241 243 246 247 246 245 248 250 251 254 257 261 264 266 267 268 268 271 275 280 283 282 280 281 282 281 281 281 282 284 286 288 288 288 288 285 283 282 282 282 283 283 280 279 280
235 236 235 233 233 234 235 236 237 238 239 242 241 235 232 233 233 227 218 214 214 218 222 226 228 229 230 231 230 230 229 228 229 230 231 232 235 237 239 241 242 244 246 247 245 245 246 249 252 254 257 260 264 266 269 272 275 279 283 283 280 278 278 276 275 276 278 280 282 284 286 287 286 286 284 281 279 279 279 280 281 280 278 278 280
235 236 236 236 235 233 233 233 234 235 237 239 238 235 231 231 231 229 222 217 217 220 223 226 227 228 229 230 229 228 227 226 227 228 229 231 234 237 238 238 239 240 242 245 248 249 250 251 254 257 260 264 267 270 273 277 280 283 283 277 273 276 278 276 274 276 279 281 283 285 286 285 284 282 279 277 277 278 278 279 280 280 280 280 281
236 238 239 239 239 236 234 233 234 235 237 236 233 230 228 227 228 227 223 218 218 220 223 226 228 228 227 226 226 227 228 227 227 227 228 230 232 233 235 236 238 241 244 247 251 254 256 257 259 261 264 268 271 274 277 280 283 285 282 276 272 273 276 276 275 276 279 282 283 284 282 280 279 278 276 276 278 279 279 278 278 278 279 279 281
236 238 238 239 239 237 233 230 230 232 233 231 227 225 223 222 225 225 222 217 217 220 222 224 226 225 224 224 225 227 227 226 226 227 229 231 234 236 239 242 245 249 252 255 257 259 261 263 264 265 268 271 274 276 278 280 281 281 278 276 275 274 274 273 273 275 279 284 286 284 281 279 277 277 277 278 280 280 280 279 277 276 277 279 282
240 238 239 241 241 240 236 231 228 227 227 226 225 226 224 222 222 223 220 216 215 216 219 221 222 222 222 223 224 224 224 225 227 229 232 235 239 243 246 249 252 255 257 259 260 261 262 263 264 265 267 268 270 271 273 275 276 275 274 274 276 276 275 275 277 278 282 286 287 284 280 277 276 276 277 277 278 277 276 276 276 277 281 284 287
243 241 244 246 243 239 236 233 228 226 226 226 227 228 226 222 219 220 218 214 210 211 214 218 221 222 222 222 221 221 223 226 229 232 236 240 244 247 250 253 256 258 259 260 261 262 263 263 264 265 265 265 265 267 270 274 277 277 275 273 272 273 274 276 279 282 286 287 285 281 277 275 274 273 271 270 270 270 271 273 277 281 284 285 285
236 235 237 241 239 235 233 230 224 221 222 223 223 221 218 216 216 216 215 212 210 211 214 218 221 222 221 220 220 222 225 229 232 235 239 242 245 248 250 252 254 256 257 258 259 260 261 261 262 264 266 267 268 269 271 273 273 271 269 268 268 271 274 277 281 286 289 287 281 276 274 273 271 269 268 269 271 272 274 278 281 283 282 282 283
187 194 199 216 228 229 228 226 222 219 219 220 219 217 217 217 216 215 213 213 212 213 214 218 221 222 222 221 223 226 229 232 234 237 240 243 245 247 248 249 250 250 251 253 255 256 257 257 258 260 262 264 265 266 265 265 265 266 267 268 271 274 278 282 285 286 285 280 276 273 271 270 269 270 272 274 276 278 280 281 282 281 281 282 284
128 133 154 172 182 195 206 213 217 219 220 220 219 218 218 218 214 209 209 211 211 213 216 220 222 223 224 225 228 231 234 236 238 241 244 246 247 248 247 246 246 246 246 248 249 250 251 252 253 255 257 257 258 260 261 262 266 270 273 275 278 280 282 282 282 279 276 274 273 272 271 272 273 275 277 278 277 278 279 279 280 281 283 285 286
136 144 162 174 175 174 178 185 192 200 207 212 213 214 215 214 211 207 207 208 210 215 221 225 228 230 231 233 235 237 239 241 244 246 247 247 246 245 244 244 244 243 245 246 246 247 248 250 251 251 252 252 253 257 261 265 269 273 275 277 279 279 277 274 271 269 269 270 271 272 274 276 276 277 277 278 278 278 279 280 282 283 284 284 285
139 147 160 172 180 186 186 179 174 175 181 190 198 203 208 212 216 219 218 218 219 223 226 228 230 232 233 236 238 241 244 246 248 249 248 246 244 243 243 243 241 240 241 244 245 246 245 245 245 247 250 254 258 260 263 266 270 272 273 273 271 269 267 265 265 266 268 269 272 274 275 275 275 274 275 276 279 281 282 282 282 281 281 282 284
154 155 156 161 173 190 198 195 187 180 177 175 178 185 192 195 197 200 206 210 211 211 214 218 222 225 227 229 231 235 241 245 246 247 246 244 242 241 242 242 241 241 241 241 241 241 240 242 246 251 255 257 258 259 262 266 269 268 267 265 263 262 262 263 265 266 268 269 270 272 273 272 272 271 272 275 278 279 279 278 278 280 281 281 282
128 148 157 159 162 173 183 189 193 196 192 182 176 178 181 176 169 172 184 194 196 192 190 195 203 208 211 214 220 229 238 244 246 246 246 245 243 242 241 240 241 241 240 239 239 241 245 249 253 255 256 257 258 260 262 264 264 263 262 261 260 259 260 262 263 263 264 264 265 267 269 270 270 270 271 273 274 274 275 277 279 280 281 282 282
88 110 133 146 154 162 166 166 171 185 193 193 196 202 204 196 183 175 170 172 179 184 186 189 195 200 203 207 217 229 238 243 245 246 246 247 247 247 244 242 241 239 238 239 242 246 249 251 253 255 259 263 266 266 264 262 261 259 258 258 258 259 260 260 260 260 260 260 261 263 265 267 269 270 271 272 272 272 275 278 280 281 282 283 285
Height
3187 3189 3192 3194 3196 3199 3201 3203 3205 3207 3209 3211 3212 3214 3216 3218 3220 3222 3223 3224 3225 3226 3228 3230 3231 3232 3234 3236 3237 3239 3240 3241 3242 3243 3244 3245 3246 3246 3247 3248 3248 3249 3249 3250 3250 3251 3252 3252 3253 3253 3254 3254 3255 3256 3257 3257 3258 3259 3260 3260 3260 3261 3261 3261 3261 3261 3261 3261 3261 3261 3261 3261 3260 3260 3259 3259 3258 3258 3257 3256 3254 3252 3250 3249 3248
3184 3186 3189 3191 3193 3196 3198 3201 3203 3204 3206 3208 3210 3212 3214 3216 3218 3220 3220 3222 3223 3224 3225 3227 3229 3230 3231 3233 3235 3237 3238 3239 3240 3241 3242 3243 3244 3245 3246 3246 3247 3247 3248 3249 3249 3250 3251 3251 3252 3253 3253 3254 3255 3255 3256 3257 3258 3259 3259 3260 3260 3260 3260 3260 3261 3261 3261 3260 3260 3260 3260 3260 3260 3259 3258 3257 3257 3257 3256 3254 3252 3251 3249 3247 3247
3181 3183 3186 3188 3190 3193 3195 3198 3200 3202 3203 3205 3207 3209 3211 3214 3216 3217 3218 3220 3221 3222 3223 3225 3227 3228 3229 3231 3232 3234 3236 3237 3238 3240 3241 3241 3242 3243 3244 3245 3245 3246 3247 3247 3248 3249 3249 3250 3251 3252 3253 3253 3254 3255 3256 3256 3257 3258 3259 3259 3259 3259 3259 3259 3260 3260 3260 3260 3260 3260 3260 3259 3259 3258 3257 3256 3256 3255 3254 3253 3251 3249 3247 3246 3246
3178 3180 3183 3185 3188 3189 3192 3194 3197 3199 3201 3202 3205 3207 3209 3211 3213 3215 3216 3217 3218 3220 3221 3222 3224 3226 3227 3229 3230 3231 3233 3235 3237 3238 3239 3240 3241 3241 3242 3243 3244 3244 3245 3245 3246 3247 3248 3249 3250 3250 3251 3252 3253 3254 3254 3255 3256 3257 3257 3258 3258 3258 3258 3258 3258 3259 3259 3259 3259 3259 3258 3258 3257 3256 3255 3255 3254 3254 3253 3251 3250 3248 3247 3246 3245
3175 3177 3180 3182 3184 3186 3188 3191 3193 3195 3198 3200 3202 3205 3207 3209 3210 3212 3214 3215 3216 3218 3219 3220 3222 3223 3225 3227 3228 3230 3231 3233 3235 3236 3238 3238 3239 3239 3240 3241 3242 3243 3243 3244 3244 3245 3246 3247 3248 3249 3250 3251 3252 3252 3253 3254 3254 3255 3255 3256 3256 3257 3257 3257 3257 3257 3257 3258 3257 3257 3256 3256 3256 3255 3253 3253 3253 3253 3251 3250 3248 3246 3246 3246 3245
3173 3175 3177 3179 3181 3183 3184 3187 3189 3192 3195 3197 3200 3202 3204 3206 3208 3209 3211 3212 3214 3215 3216 3218 3219 3220 3222 3224 3226 3228 3229 3231 3232 3234 3236 3237 3237 3238 3238 3239 3240 3241 3241 3242 3242 3243 3244 3245 3246 3247 3247 3249 3250 3251 3251 3252 3252 3253 3253 3254 3254 3255 3255 3256 3256 3256 3256 3255 3255 3255 3254 3254 3254 3254 3252 3251 3251 3250 3249 3248 3246 3245 3245 3245 3244
3170 3172 3174 3176 3178 3180 3182 3183 3186 3189 3192 3195 3198 3200 3201 3203 3205 3207 3209 3210 3211 3212 3213 3215 3217 3218 3220 3221 3223 3225 3227 3228 3230 3231 3233 3234 3235 3236 3237 3237 3238 3239 3239 3240 3240 3241 3242 3243 3243 3244 3245 3246 3247 3248 3249 3250 3250 3251 3251 3251 3252 3252 3253 3254 3254 3254 3254 3254 3253 3253 3252 3252 3252 3251 3251 3250 3249 3248 3247 3246 3245 3245 3244 3244 3242
3168 3170 3172 3174 3175 3177 3179 3182 3184 3187 3189 3192 3195 3197 3199 3200 3202 3204 3206 3207 3208 3210 3211 3213 3214 3216 3217 3219 3220 3222 3224 3225 3227 3228 3230 3232 3233 3234 3235 3236 3236 3236 3237 3238 3238 3239 3239 3240 3241 3242 3243 3243 3244 3245 3246 3247 3247 3248 3248 3249 3249 3249 3250 3250 3251 3252 3252 3252 3252 3251 3250 3250 3250 3249 3248 3248 3247 3246 3245 3245 3244 3243 3242 3241 3239
3166 3169 3170 3172 3173 3176 3178 3180 3182 3184 3187 3189 3191 3194 3196 3198 3200 3202 3203 3205 3206 3208 3209 3210 3212 3213 3215 3216 3217 3219 3220 3222 3224 3226 3228 3229 3231 3232 3233 3233 3234 3234 3235 3235 3236 3236 3237 3238 3238 3239 3240 3240 3241 3242 3243 3244 3244 3245 3246 3246 3246 3246 3247 3247 3248 3249 3249 3249 3249 3248 3248 3248 3247 3246 3246 3246 3245 3244 3243 3243 3242 3241 3239 3238 3237
3165 3167 3169 3171 3172 3174 3176 3178 3180 3182 3184 3186 3189 3191 3193 3195 3197 3199 3200 3202 3204 3205 3206 3207 3209 3210 3212 3214 3215 3216 3217 3219 3221 3223 3225 3226 3228 3229 3230 3231 3231 3232 3232 3233 3233 3234 3234 3235 3236 3237 3237 3238 3238 3239 3240 3240 3241 3242 3243 3243 3243 3244 3244 3244 3245 3246 3246 3246 3246 3245 3245 3245 3245 3244 3244 3244 3243 3242 3241 3241 3240 3239 3237 3237 3236
3164 3166 3168 3169 3171 3172 3174 3176 3178 3179 3181 3184 3186 3189 3191 3192 3194 3196 3198 3200 3201 3202 3203 3204 3206 3208 3210 3211 3212 3213 3215 3216 3218 3220 3222 3223 3224 3225 3227 3228 3228 3229 3230 3230 3231 3231 3232 3233 3233 3234 3234 3235 3236 3236 3237 3237 3238 3239 3239 3240 3240 3241 3241 3242 3242 3243 3243 3243 3243 3243 3242 3242 3242 3242 3242 3242 3242 3240 3239 3238 3237 3236 3235 3234 3233
3165 3166 3167 3168 3169 3171 3172 3174 3176 3177 3179 3182 3184 3187 3188 3190 3191 3193 3194 3197 3198 3200 3201 3201 3203 3205 3207 3208 3210 3211 3212 3214 3216 3218 3219 3220 3221 3222 3223 3224 3225 3226 3227 3227 3228 3229 3230 3230 3231 3231 3231 3232 3233 3233 3234 3234 3235 3235 3236 3237 3237 3238 3238 3239 3240 3240 3240 3240 3241 3241 3240 3239 3240 3240 3240 3240 3239 3239 3237 3236 3234 3233 3233 3232 3231
3162 3164 3165 3166 3167 3169 3171 3172 3174 3175 3177 3179 3182 3184 3186 3187 3189 3190 3192 3194 3196 3197 3198 3199 3200 3201 3203 3205 3207 3208 3210 3212 3214 3215 3216 3218 3219 3219 3220 3221 3222 3223 3224 3225 3225 3226 3227 3228 3228 3229 3229 3229 3230 3230 3231 3231 3232 3232 3233 3233 3233 3234 3235 3236 3237 3237 3237 3237 3238 3238 3238 3237 3238 3238 3238 3237 3237 3237 3235 3234 3232 3231 3231 3230 3229
3158 3159 3160 3161 3163 3166 3169 3171 3172 3173 3175 3177 3180 3182 3183 3185 3186 3188 3190 3191 3193 3194 3195 3196 3197 3198 3200 3202 3204 3206 3207 3209 3211 3212 3214 3215 3216 3217 3217 3218 3219 3220 3221 3222 3223 3223 3224 3225 3225 3226 3227 3227 3227 3228 3228 3228 3229 3229 3229 3230 3230 3231 3232 3233 3234 3234 3234 3234 3234 3235 3235 3235 3235 3236 3236 3235 3235 3234 3233 3232 3231 3230 3229 3228 3227
3157 3160 3161 3163 3163 3163 3165 3167 3169 3171 3173 3175 3177 3179 3181 3182 3184 3186 3187 3188 3189 3191 3193 3194 3195 3195 3197 3199 3201 3202 3204 3206 3208 3209 3211 3212 3213 3214 3214 3215 3216 3217 3218 3219 3220 3221 3222 3222 3223 3224 3224 3224 3225 3225 3226 3226 3226 3226 3227 3227 3227 3228 3229 3230 3231 3232 3232 3232 3232 3232 3232 3232 3233 3233 3233 3232 3232 3232 3231 3230 3228 3228 3227 3227 3225
3155 3157 3160 3162 3162 3161 3161 3163 3165 3168 3170 3172 3174 3176 3178 3180 3181 3183 3184 3185 3187 3188 3190 3191 3192 3193 3194 3195 3197 3199 3201 3203 3205 3206 3208 3210 3211 3211 3211 3212 3213 3214 3215 3216 3217 3218 3219 3220 3221 3221 3222 3222 3222 3223 3223 3223 3224 3224 3224 3224 3225 3225 3226 3227 3228 3229 3229 3230 3230 3230 3230 3230 3230 3230 3230 3230 3229 3229 3228 3227 3226 3226 3225 3224 3223
3150 3153 3154 3157 3159 3158 3159 3160 3161 3164 3166 3169 3171 3173 3175 3177 3179 3180 3181 3182 3184 3185 3187 3188 3189 3191 3191 3192 3193 3196 3198 3200 3202 3204 3205 3206 3207 3208 3209 3209 3210 3211 3213 3214 3215 3216 3216 3217 3218 3219 3219 3220 3220 3220 3220 3220 3221 3221 3221 3222 3222 3222 3224 3225 3225 3226 3227 3227 3228 3228 3228 3228 3228 3227 3227 3227 3227 3226 3225 3224 3224 3223 3222 3221 3220
3146 3150 3151 3153 3155 3156 3157 3157 3158 3160 3162 3165 3167 3170 3172 3174 3176 3178 3179 3180 3181 3182 3184 3186 3187 3188 3189 3190 3191 3192 3194 3196 3199 3201 3202 3203 3204 3205 3206 3207 3207 3208 3210 3211 3212 3213 3214 3215 3216 3216 3217 3218 3218 3218 3218 3218 3218 3219 3219 3219 3219 3220 3221 3222 3223 3223 3224 3225 3226 3227 3226 3226 3225 3225 3225 3225 3224 3224 3223 3222 3222 3221 3220 3219 3217
3142 3146 3149 3150 3151 3153 3155 3155 3156 3157 3158 3161 3164 3167 3169 3171 3174 3175 3176 3177 3179 3180 3181 3182 3183 3185 3186 3187 3188 3189 3191 3193 3195 3197 3199 3200 3201 3202 3203 3204 3205 3206 3207 3208 3209 3209 3210 3212 3213 3214 3215 3215 3216 3216 3216 3215 3216 3216 3217 3217 3216 3217 3219 3220 3220 3220 3221 3222 3224 3224 3224 3224 3224 3223 3223 3223 3222 3222 3221 3221 3220 3220 3218 3217 3215
3139 3142 3144 3146 3148 3149 3151 3152 3152 3153 3155 3158 3161 3164 3166 3168 3170 3172 3173 3174 3175 3177 3178 3179 3180 3181 3183 3184 3185 3187 3188 3189 3191 3193 3195 3196 3197 3199 3199 3200 3202 3203 3204 3205 3206 3206 3207 3208 3210 3211 3212 3212 3213 3213 3213 3213 3213 3214 3214 3213 3213 3215 3216 3216 3216 3217 3218 3219 3221 3221 3221 3222 3222 3222 3222 3221 3221 3220 3220 3219 3219 3218 3216 3214 3213
3136 3138 3139 3141 3143 3145 3146 3147 3149 3150 3152 3155 3158 3160 3162 3165 3167 3169 3170 3171 3172 3173 3174 3176 3177 3178 3179 3181 3182 3183 3185 3186 3188 3189 3191 3192 3194 3195 3195 3197 3199 3200 3201 3202 3202 3203 3204 3205 3207 3208 3209 3209 3210 3210 3210 3211 3211 3211 3211 3210 3211 3212 3213 3212 3213 3214 3215 3216 3217 3218 3219 3220 3221 3221 3220 3220 3219 3218 3217 3217 3216 3215 3213 3212 3210
3132 3134 3135 3136 3138 3139 3141 3142 3144 3146 3148 3151 3153 3156 3158 3161 3163 3165 3167 3168 3168 3169 3170 3172 3173 3175 3176 3177 3178 3180 3181 3183 3184 3186 3187 3188 3190 3190 3191 3193 3195 3197 3197 3198 3199 3200 3201 3202 3204 3205 3206 3206 3207 3207 3207 3207 3207 3207 3208 3208 3208 3208 3208 3209 3210 3211 3212 3213 3214 3215 3216 3217 3218 3218 3218 3218 3216 3215 3214 3214 3214 3213 3211 3210 3208
3128 3129 3130 3132 3133 3134 3135 3137 3139 3142 3144 3146 3149 3151 3153 3156 3158 3160 3162 3163 3164 3165 3166 3168 3169 3171 3172 3173 3174 3176 3177 3179 3181 3182 3183 3185 3186 3187 3188 3190 3192 3193 3193 3194 3195 3197 3198 3199 3201 3202 3203 3203 3203 3203 3204 3204 3204 3204 3205 3205 3204 3204 3205 3206 3207 3208 3209 3210 3211 3213 3214 3214 3214 3215 3214 3214 3213 3212 3211 3211 3211 3210 3209 3207 3206
3123 3125 3126 3127 3128 3129 3130 3132 3135 3137 3140 3142 3144 3146 3148 3151 3153 3155 3157 3159 3160 3161 3162 3163 3165 3166 3168 3169 3171 3172 3174 3175 3177 3179 3180 3181 3183 3184 3185 3187 3188 3189 3190 3191 3192 3193 3194 3195 3197 3198 3199 3200 3200 3200 3200 3200 3200 3201 3202 3201 3201 3201 3202 3203 3204 3205 3206 3207 3208 3210 3211 3210 3210 3210 3209 3209 3208 3208 3207 3208 3208 3208 3206 3205 3203
3119 3120 3121 3122 3124 3125 3127 3128 3130 3133 3135 3137 3139 3141 3143 3146 3148 3150 3152 3154 3155 3157 3158 3159 3160 3162 3164 3165 3167 3169 3170 3172 3173 3175 3176 3178 3179 3181 3182 3183 3184 3185 3186 3188 3189 3190 3190 3192 3193 3194 3195 3196 3196 3196 3196 3197 3197 3198 3198 3198 3197 3198 3198 3199 3200 3201 3202 3203 3204 3206 3207 3206 3206 3206 3205 3204 3204 3204 3204 3205 3206 3205 3204 3202 3200
3114 3116 3117 3118 3120 3121 3123 3124 3126 3128 3130 3133 3135 3137 3139 3141 3143 3145 3147 3149 3151 3152 3154 3155 3157 3158 3160 3161 3163 3165 3167 3168 3169 3171 3173 3174 3175 3177 3178 3180 3181 3182 3183 3184 3185 3185 3187 3188 3189 3190 3190 3191 3192 3192 3192 3193 3193 3194 3194 3194 3194 3194 3195 3196 3197 3197 3198 3199 3200 3201 3202 3202 3203 3203 3203 3202 3202 3202 3203 3204 3203 3202 3200 3199 3198
3110 3112 3113 3114 3115 3117 3118 3120 3121 3123 3126 3128 3130 3132 3134 3136 3138 3140 3142 3144 3146 3148 3150 3152 3153 3154 3156 3158 3159 3161 3163 3164 3165 3167 3168 3170 3171 3173 3175 3176 3177 3178 3179 3180 3181 3182 3183 3183 3184 3185 3186 3187 3187 3188 3188 3189 3189 3190 3190 3191 3191 3191 3192 3192 3193 3193 3194 3195 3196 3196 3197 3198 3200 3200 3201 3201 3200 3200 3200 3199 3199 3197 3196 3195 3194
3107 3108 3109 3110 3111 3112 3114 3115 3117 3119 3122 3124 3126 3128 3130 3132 3134 3135 3137 3140 3142 3145 3147 3148 3150 3151 3153 3154 3156 3157 3159 3160 3161 3163 3165 3167 3168 3170 3171 3173 3174 3174 3175 3177 3177 3178 3178 3179 3179 3180 3182 3182 3183 3184 3184 3185 3185 3186 3186 3187 3187 3188 3188 3188 3188 3189 3190 3191 3191 3191 3192 3194 3195 3195 3196 3196 3196 3196 3194 3193 3193 3193 3191 3190 3189
3103 3104 3105 3106 3107 3108 3110 3111 3113 3115 3118 3120 3122 3124 3125 3128 3130 3132 3133 3136 3139 3142 3144 3146 3148 3149 3150 3152 3153 3154 3155 3156 3158 3160 3162 3164 3165 3166 3168 3169 3170 3171 3172 3172 3173 3173 3174 3175 3176 3177 3178 3178 3179 3179 3180 3181 3181 3181 3181 3182 3183 3183 3183 3184 3184 3185 3186 3185 3185 3186 3188 3189 3189 3190 3191 3191 3191 3191 3190 3188 3188 3187 3186 3185 3184
3097 3098 3100 3101 3102 3104 3105 3106 3109 3111 3113 3116 3118 3119 3121 3123 3126 3128 3130 3133 3136 3139 3141 3143 3145 3147 3148 3149 3150 3151 3152 3154 3156 3157 3159 3160 3161 3163 3164 3165 3166 3167 3168 3168 3168 3168 3169 3171 3172 3173 3174 3175 3175 3175 3176 3176 3176 3177 3177 3177 3178 3178 3178 3179 3180 3180 3180 3180 3181 3183 3184 3184 3183 3185 3186 3187 3186 3186 3185 3183 3182 3181 3181 3180 3178
3092 3092 3094 3095 3097 3099 3101 3102 3105 3107 3109 3111 3113 3115 3117 3119 3122 3124 3126 3130 3133 3135 3137 3139 3141 3143 3144 3146 3147 3148 3150 3152 3153 3154 3155 3156 3158 3159 3160 3161 3162 3162 3163 3163 3163 3164 3165 3167 3168 3169 3170 3170 3171 3171 3172 3172 3172 3172 3172 3172 3172 3173 3173 3175 3176 3176 3176 3176 3178 3180 3180 3179 3179 3181 3182 3181 3180 3180 3179 3178 3177 3177 3175 3174 3173
3086 3087 3088 3090 3092 3094 3096 3098 3100 3101 3104 3107 3109 3111 3113 3115 3117 3120 3123 3126 3129 3131 3133 3135 3137 3138 3140 3142 3143 3145 3147 3148 3150 3150 3151 3152 3153 3154 3155 3156 3157 3157 3158 3158 3159 3160 3161 3162 3164 3165 3166 3166 3167 3167 3167 3167 3167 3167 3167 3167 3167 3167 3168 3171 3172 3172 3171 3172 3174 3175 3175 3175 3176 3177 3177 3175 3174 3175 3174 3173 3173 3172 3170 3169 3168
3080 3081 3082 3084 3086 3088 3090 3092 3094 3095 3098 3101 3104 3107 3109 3111 3113 3116 3120 3123 3125 3127 3129 3131 3133 3134 3136 3138 3140 3142 3144 3145 3146 3147 3148 3148 3149 3149 3150 3151 3151 3152 3152 3153 3154 3155 3157 3158 3160 3161 3162 3162 3163 3163 3163 3163 3162 3162 3161 3162 3161 3161 3163 3166 3167 3167 3167 3167 3168 3170 3171 3171 3171 3171 3171 3170 3170 3170 3169 3168 3167 3167 3166 3164 3163
3074 3075 3077 3079 3081 3084 3085 3086 3089 3092 3095 3098 3100 3102 3104 3107 3110 3113 3116 3119 3121 3124 3126 3128 3129 3131 3133 3135 3137 3139 3140 3142 3143 3143 3144 3144 3144 3145 3145 3146 3146 3147 3147 3149 3150 3151 3153 3154 3155 3157 3157 3158 3158 3158 3158 3158 3158 3157 3156 3157 3157 3157 3158 3161 3163 3162 3162 3162 3162 3163 3165 3166 3167 3166 3165 3165 3165 3165 3164 3163 3162 3162 3162 3160 3159
3069 3071 3072 3075 3077 3079 3081 3083 3086 3089 3092 3096 3099 3101 3101 3102 3106 3110 3113 3115 3118 3121 3123 3124 3126 3128 3130 3132 3133 3135 3136 3137 3138 3139 3140 3140 3140 3141 3141 3141 3142 3142 3143 3144 3146 3148 3150 3151 3152 3152 3153 3153 3153 3154 3154 3154 3153 3152 3151 3153 3156 3157 3158 3159 3159 3158 3158 3159 3158 3158 3160 3161 3162 3162 3161 3161 3160 3160 3159 3158 3157 3158 3157 3156 3154
3062 3063 3065 3069 3072 3075 3077 3081 3083 3085 3087 3091 3095 3098 3098 3099 3101 3104 3108 3111 3113 3116 3119 3121 3123 3125 3127 3128 3129 3131 3132 3133 3134 3135 3136 3136 3137 3137 3137 3138 3139 3139 3139 3142 3144 3146 3147 3148 3148 3149 3149 3149 3149 3149 3149 3149 3148 3146 3147 3151 3155 3157 3156 3156 3154 3154 3155 3156 3155 3155 3156 3157 3157 3157 3156 3155 3154 3154 3154 3153 3152 3152 3153 3151 3150
3056 3056 3059 3064 3068 3071 3074 3076 3078 3080 3082 3085 3088 3091 3095 3096 3097 3099 3102 3105 3107 3111 3114 3116 3119 3121 3122 3124 3125 3126 3127 3129 3130 3131 3132 3133 3133 3133 3134 3135 3135 3135 3137 3140 3143 3143 3143 3144 3144 3145 3145 3145 3145 3145 3144 3144 3143 3142 3144 3148 3152 3152 3151 3150 3150 3151 3152 3152 3152 3151 3152 3152 3152 3151 3150 3149 3148 3148 3149 3148 3148 3147 3147 3147 3146
3051 3051 3053 3057 3061 3064 3066 3069 3071 3073 3076 3079 3081 3085 3089 3092 3094 3095 3097 3100 3103 3106 3109 3112 3114 3116 3118 3119 3120 3121 3123 3124 3126 3127 3128 3129 3129 3130 3131 3131 3131 3131 3133 3135 3137 3138 3139 3139 3140 3141 3141 3141 3141 3141 3141 3140 3139 3139 3142 3145 3146 3146 3146 3146 3146 3147 3148 3148 3148 3148 3149 3148 3146 3144 3143 3143 3143 3144 3144 3143 3143 3143 3143 3143 3143
3047 3047 3049 3053 3056 3057 3059 3063 3066 3069 3071 3074 3076 3080 3083 3086 3089 3091 3093 3095 3099 3102 3105 3107 3110 3112 3113 3115 3116 3117 3119 3120 3121 3123 3124 3125 3126 3127 3127 3127 3128 3128 3129 3130 3130 3132 3133 3135 3136 3136 3137 3137 3137 3137 3137 3137 3136 3137 3139 3141 3142 3142 3141 3141 3142 3142 3143 3144 3144 3144 3144 3143 3142 3140 3138 3138 3139 3140 3139 3139 3139 3138 3138 3138 3138
3042 3044 3046 3050 3052 3053 3056 3060 3062 3064 3066 3069 3072 3075 3078 3080 3084 3088 3090 3091 3094 3097 3099 3102 3105 3107 3109 3111 3113 3114 3115 3116 3117 3119 3120 3121 3122 3123 3123 3124 3124 3125 3125 3126 3126 3127 3129 3130 3131 3132 3133 3133 3133 3133 3133 3134 3134 3134 3135 3135 3137 3138 3138 3137 3137 3138 3139 3139 3140 3139 3138 3138 3138 3137 3135 3135 3135 3135 3135 3135 3135 3134 3134 3134 3134
3037 3040 3042 3044 3045 3046 3049 3053 3055 3058 3062 3065 3067 3070 3073 3075 3078 3083 3085 3086 3088 3091 3095 3097 3100 3103 3105 3107 3109 3110 3111 3112 3113 3115 3116 3117 3118 3119 3120 3121 3121 3122 3122 3122 3123 3124 3125 3126 3127 3128 3129 3129 3129 3129 3129 3130 3131 3132 3131 3130 3131 3133 3133 3133 3133 3134 3134 3135 3135 3134 3134 3134 3134 3133 3131 3131 3131 3131 3130 3130 3130 3130 3130 3131 3131
3033 3036 3038 3039 3039 3039 3041 3047 3052 3056 3059 3061 3063 3066 3069 3071 3073 3076 3079 3080 3082 3086 3090 3093 3095 3098 3101 3102 3104 3106 3107 3108 3109 3111 3112 3113 3114 3115 3116 3117 3117 3117 3118 3118 3119 3120 3120 3121 3122 3124 3124 3125 3125 3125 3125 3126 3127 3128 3128 3128 3127 3127 3127 3127 3128 3129 3129 3130 3130 3130 3129 3129 3129 3128 3128 3127 3127 3127 3126 3126 3126 3126 3127 3128 3127
3031 3032 3033 3035 3037 3037 3039 3045 3051 3053 3055 3057 3060 3062 3065 3067 3069 3072 3075 3077 3077 3080 3084 3088 3091 3093 3096 3098 3100 3102 3103 3104 3106 3107 3108 3109 3111 3111 3112 3113 3113 3113 3114 3114 3115 3115 3116 3117 3118 3118 3119 3120 3120 3120 3121 3122 3122 3123 3124 3124 3123 3123 3122 3122 3123 3123 3124 3125 3125 3125 3125 3125 3125 3124 3124 3123 3123 3122 3122 3122 3123 3124 3124 3124 3123
3030 3031 3030 3032 3035 3035 3037 3042 3046 3047 3048 3051 3053 3056 3059 3061 3063 3067 3072 3073 3074 3076 3080 3083 3086 3089 3091 3093 3096 3098 3099 3101 3102 3103 3105 3106 3107 3107 3108 3108 3109 3109 3110 3110 3110 3111 3111 3112 3113 3114 3115 3116 3116 3116 3117 3117 3118 3118 3119 3119 3119 3118 3118 3118 3118 3119 3119 3119 3120 3120 3120 3120 3120 3120 3119 3119 3119 3119 3119 3120 3120 3120 3120 3119 3118
3028 3029 3029 3031 3033 3035 3036 3038 3039 3040 3042 3044 3047 3051 3054 3056 3059 3064 3068 3070 3071 3073 3076 3078 3081 3084 3086 3089 3092 3094 3095 3097 3098 3099 3100 3101 3102 3103 3103 3104 3105 3105 3105 3106 3106 3107 3107 3108 3109 3111 3112 3112 3112 3113 3113 3113 3113 3114 3114 3114 3114 3114 3114 3114 3114 3114 3114 3114 3115 3115 3115 3116 3116 3116 3116 3116 3116 3116 3116 3116 3116 3115 3115 3114 3113
3027 3028 3028 3031 3033 3035 3037 3038 3039 3041 3043 3045 3047 3051 3053 3056 3060 3064 3066 3067 3068 3071 3073 3075 3077 3080 3083 3086 3088 3090 3092 3093 3094 3095 3096 3097 3097 3098 3099 3099 3100 3100 3101 3101 3102 3102 3103 3104 3105 3106 3107 3108 3108 3109 3109 3109 3109 3109 3110 3110 3110 3110 3110 3110 3110 3110 3110 3110 3110 3111 3111 3112 3112 3112 3112 3112 3112 3112 3112 3111 3111 3111 3110 3109 3108
3026 3026 3028 3031 3033 3035 3037 3038 3040 3043 3045 3048 3050 3053 3055 3058 3061 3063 3063 3063 3066 3069 3071 3073 3075 3077 3080 3083 3085 3087 3088 3089 3090 3091 3091 3092 3093 3093 3094 3094 3095 3096 3097 3097 3098 3098 3099 3100 3101 3101 3102 3103 3104 3104 3105 3105 3105 3105 3105 3105 3105 3105 3105 3105 3105 3106 3106 3106 3106 3107 3107 3107 3108 3107 3107 3107 3107 3107 3107 3107 3106 3106 3105 3104 3103
3028 3028 3029 3030 3032 3033 3035 3037 3039 3041 3044 3046 3049 3051 3054 3057 3060 3061 3062 3063 3065 3067 3069 3070 3072 3074 3076 3078 3080 3082 3083 3085 3085 3086 3087 3088 3088 3089 3090 3090 3091 3092 3092 3093 3094 3094 3095 3096 3096 3097 3098 3099 3099 3100 3101 3101 3101 3101 3101 3101 3101 3101 3101 3101 3101 3101 3101 3101 3101 3102 3102 3103 3102 3102 3102 3102 3102 3102 3102 3101 3101 3100 3100 3099 3098
3029 3029 3030 3031 3032 3033 3034 3036 3038 3040 3042 3043 3045 3047 3049 3052 3054 3056 3058 3061 3063 3065 3066 3067 3068 3070 3072 3074 3076 3078 3079 3081 3082 3083 3084 3084 3085 3085 3086 3086 3087 3087 3088 3088 3089 3090 3090 3091 3092 3093 3094 3095 3095 3096 3096 3097 3097 3098 3098 3097 3097 3097 3097 3097 3097 3097 3097 3097 3097 3098 3097 3097 3097 3097 3097 3098 3098 3097 3096 3096 3095 3094 3094 3093 3092
3029 3029 3030 3031 3032 3033 3034 3035 3037 3038 3040 3042 3044 3045 3047 3049 3051 3052 3054 3057 3060 3062 3062 3063 3065 3067 3069 3071 3074 3075 3077 3078 3079 3080 3081 3081 3082 3082 3082 3082 3083 3083 3083 3084 3084 3085 3086 3087 3088 3089 3090 3090 3091 3091 3092 3092 3093 3093 3094 3094 3094 3094 3094 3094 3093 3093 3093 3093 3093 3093 3093 3092 3092 3093 3093 3093 3092 3091 3090 3089 3089 3088 3088 3087 3086
3030 3030 3030 3031 3032 3033 3034 3034 3035 3036 3037 3039 3041 3043 3045 3047 3049 3051 3052 3054 3057 3058 3059 3059 3061 3063 3065 3067 3070 3073 3074 3075 3076 3077 3077 3078 3078 3078 3078 3078 3078 3078 3079 3080 3081 3082 3083 3084 3085 3086 3086 3087 3087 3087 3088 3088 3089 3089 3090 3090 3090 3090 3090 3090 3090 3090 3090 3089 3089 3088 3088 3088 3088 3088 3088 3087 3086 3085 3084 3084 3083 3082 3082 3081 3080